Regional Weather Roundup
Issued by NWS

Home | Current Version | Previous Version | Graphics & Text | Print | Product List | Glossary On
Versions: 1 2 3 4 5 6 7 8 9 10 11 12 13 14 15 16 17 18 19 20 21 22 23 24 25 26 27
000
ASUS45 KTFX 172210
RWRMT
MONTANA REGIONAL WEATHER ROUNDUP
NATIONAL WEATHER SERVICE GREAT FALLS MT
400 PM MDT TUE OCT 17 2017

NOTE: "FAIR" INDICATES FEW OR NO CLOUDS BELOW 12000 FEET WITH NO
SIGNIFICANT WEATHER AND/OR OBSTRUCTIONS TO VISIBILITY.

MTZ001>007-043-172300-
WEST OF THE DIVIDE

CITY           SKY/WX    TMP DP  RH WIND       PRES   REMARKS
KALISPELL      PTSUNNY   69  24  18 SW30G47   29.62F
MISSOULA       MOSUNNY   71  24  17 W22G35    29.83F
BUTTE          CLOUDY    67  15  13 W25G41    29.96F
MULLAN PASS    CLOUDY    46  24  42 SW15G32   29.87F
ANACONDA         N/A     70  18  13 SW13G24   29.90F
LIBBY            N/A     64  21  19 SE15G25   29.65F
$$

MTZ008-052>055-172300-
SOUTHWEST MONTANA

CITY           SKY/WX    TMP DP  RH WIND       PRES   REMARKS
BOZEMAN        CLOUDY    70  17  13 SW17G24   29.89F
DILLON         CLOUDY    67  20  16 W22G32    29.96F
W YELLOWSTONE  CLOUDY    55  12  18 SW17G29   30.12F
ENNIS          CLOUDY    64  16  15 S23G36    30.04R
$$

MTZ009-010-012-014-046-048-049-054-172300-
EAST SLOPES AND CENTRAL MONTANA

CITY           SKY/WX    TMP DP  RH WIND       PRES   REMARKS
CUT BANK       MOSUNNY   67  20  16 SW48G62   29.52F
GREAT FALLS    SUNNY     73  20  13 SW29G47   29.67F
MALMSTROM AFB  SUNNY     73  21  14 W32G47    29.68F
HELENA         SUNNY     74  21  13 W20G25    29.80F
$$

MTZ011-013-016-021-045-047-050-051-172300-
NORTH CENTRAL MONTANA

CITY           SKY/WX    TMP DP  RH WIND       PRES   REMARKS
HAVRE          SUNNY     77  23  13 SW33G47   29.54F
LEWISTOWN      CLOUDY    70  19  14 W26G32    29.76F
N BAR RANCH      N/A     72  14  11 SW23G43   29.80F
CHINOOK          N/A     75  23  14 SW24G39   29.55F
$$

MTZ017>020-022>027-061-062-172300-
NORTHEAST MONTANA

CITY           SKY/WX    TMP DP  RH WIND       PRES   REMARKS
GLASGOW        SUNNY     78  20  11 W22G33    29.59F
JORDAN           N/A     78  20  11 SW23G31   29.67F
SIDNEY         SUNNY     78  21  12 SW21G29   29.64F
WOLF POINT     SUNNY     80  21  11 SW14G24   29.61F
MALTA          SUNNY     73  23  15 SW21G29   29.57F
POPLAR           N/A     79  21  11 W18G28    29.62F
$$

MTZ028>42-056>058-172300-
SOUTHCENTRAL AND SOUTHEAST MONTANA

CITY           SKY/WX    TMP DP  RH WIND       PRES   REMARKS
BAKER          SUNNY     75  24  15 SW20G26   29.80F
BILLINGS       CLOUDY    75  22  13 SW15      29.80F
LIVINGSTON     CLOUDY    71  18  13 SW26G43   29.87F
MILES CITY     CLOUDY    79  23  12 SW17G26   29.74F
$$

REGIONAL REPORTS...DAKOTAS

CITY           SKY/WX    TMP DP  RH WIND       PRES   REMARKS
WILLISTON      SUNNY     77  26  15 SW18G31   29.63F
MINOT          SUNNY     76  29  17 SW20G25   29.64F
DICKINSON      SUNNY     75  22  13 W25G31    29.74F
BEACH            N/A     73  19  13 SW20G26   29.78F
CROSBY           N/A     73  25  16 SW23G31   29.58F
TIOGA            N/A     73  25  16 SW23G32   29.64F
WATFORD CITY     N/A     75  28  17 SW17G25   29.66F
BISMARCK       SUNNY     80  25  13 SW14G23   29.74F
GRAND FORKS    MOSUNNY   79  29  16 SW15G24   29.68F
FARGO          SUNNY     75  40  28 SW15      29.76F
BUFFALO SD       N/A     78  16   9 SW18      29.77F
RAPID CITY     SUNNY     77  24  14 SE14      29.87F
$$

REGIONAL REPORTS...WYOMING/IDAHO/WASHINGTON

CITY           SKY/WX    TMP DP  RH WIND       PRES   REMARKS
GILLETTE       SUNNY     74   9   8 W9        29.92F
SHERIDAN       SUNNY     79  18  10 E5        29.87F
BUFFALO WY     SUNNY     74   6   7 CALM      29.95F
CODY           CLOUDY    72  16  12 W7G18     29.98F
IDAHO FALLS    SUNNY     64  30  27 SW13      30.11F
SALMON         CLOUDY    56  29  35 VRB3      30.01F
BOISE          PTSUNNY   63  28  26 CALM      30.09F
SPOKANE        MOSUNNY   64  35  34 SW39G52   29.81S BLWGDUST
$$

REGIONAL REPORTS...ALBERTA

CITY           SKY/WX    TMP DP  RH WIND       PRES   REMARKS
EDMONTON       PTSUNNY   48  39  71 NW21G38   29.14R
CALGARY        MOSUNNY   66  25  20 SW33G44   29.15F
LETHBRIDGE     MOSUNNY   70  21  16 SW48G70   29.34F
MEDICINE HAT   MOSUNNY   73  21  14 SW28G47   29.34F
$$

REGIONAL REPORTS...SASKATCHEWAN

CITY           SKY/WX    TMP DP  RH WIND       PRES   REMARKS
SWIFT CURRENT    N/A     72  19  14 MISG      29.38F
REGINA         MOSUNNY   77  27  15 SW23G32   29.42F
SASKATOON      MOSUNNY   72  34  25 SW26      29.23F
$$




USA.gov is the U.S. government's official web portal to all federal, state and local government web resources and services.